Cedar, IA

1:50 AM CDT on September 01, 2016 (GMT -0500)
Oskaloosa Municipal

Weather History for KOOA - October, 2012

Change the Weather History Date:

Wednesday, October 24, 2012

  Actual Average (KOTM) Record (KOTM)
Temperature  
Mean Temperature 72 °F 50 °F  
Max Temperature 81 °F 60 °F 85 °F (1940)
Min Temperature 64 °F 39 °F 20 °F (2006)
Degree Days  
Heating Degree Days 0 16  
Month to date heating degree days 283  
Since 1 July heating degree days 404  
Cooling Degree Days 8 0  
Month to date cooling degree days 9  
Year to date cooling degree days 936  
Growing Degree Days 22 (Base 50)    
Moisture  
Dew Point 64 °F    
Average Humidity 75    
Maximum Humidity 92    
Minimum Humidity 57    
Precipitation  
Precipitation 0.00 in 0.09 in 1.05 in (1967)
Month to date precipitation 2.21  
Year to date precipitation 32.70  
Sea Level Pressure  
Sea Level Pressure 29.78 in    
Wind  
Wind Speed 11 mph (South)    
Max Wind Speed 21 mph    
Max Gust Speed 28 mph    
Visibility 9 miles    
Events      
T = Trace of Precipitation, MM = Missing Value Source: NWS Daily Summary

Daily Weather History Graph

Daily Weather History Graph

Search for Another Location

Airport or City:

Trip Planner

Search our weather history database for the weather conditions in past years. The results will help you decide how hot, cold, wet, or windy it might be!

Date:

Astronomy

Oct. 24, 2012 Rise Set
Actual Time 7:32 AM CDT 6:15 PM CDT
Civil Twilight 7:04 AM CDT 6:43 PM CDT
Nautical Twilight 6:31 AM CDT 7:15 PM CDT
Astronomical Twilight 5:59 AM CDT 7:47 PM CDT
Moon 3:33 PM CDT (10/24) 2:25 AM CDT (10/24)
Length of Visible Light 11h 39m
Length of Day
10h 42m
Waxing Gibbous, 76% of the Moon is Illuminated
Oct 24
Waxing Gibbous
Oct 29
Full
Nov 6
Last Quarter
Nov 13
New
Nov 20
First Quarter

Hourly Weather History & Observations

Time (CDT) Temp. Heat Index Dew Point Humidity Pressure Visibility Wind Dir Wind Speed Gust Speed Precip Events Conditions
12:15 AM 67.5 °F - 63.3 °F 87% 29.81 in 10.0 mi South 8.1 mph - N/A   Clear
12:35 AM 66.7 °F - 63.0 °F 88% 29.81 in 10.0 mi South 8.1 mph - N/A   Clear
1:15 AM 66.2 °F - 62.6 °F 88% 29.81 in 10.0 mi South 6.9 mph - N/A   Clear
1:35 AM 66.2 °F - 62.6 °F 88% 29.82 in 10.0 mi South 6.9 mph - N/A   Clear
1:55 AM 67.1 °F - 63.0 °F 87% 29.82 in 10.0 mi South 8.1 mph - N/A   Mostly Cloudy
2:15 AM 66.6 °F - 62.8 °F 88% 29.82 in 10.0 mi South 5.8 mph - N/A   Mostly Cloudy
2:35 AM 66.9 °F - 63.3 °F 88% 29.82 in 10.0 mi South 5.8 mph - N/A   Mostly Cloudy
2:55 AM 66.4 °F - 62.8 °F 88% 29.82 in 10.0 mi SSE 5.8 mph - N/A   Mostly Cloudy
3:15 AM 66.2 °F - 63.0 °F 89% 29.82 in 10.0 mi South 5.8 mph - N/A   Scattered Clouds
3:35 AM 65.5 °F - 62.2 °F 89% 29.82 in 7.0 mi South 5.8 mph - N/A   Scattered Clouds
3:55 AM 65.3 °F - 61.9 °F 89% 29.82 in 7.0 mi South 5.8 mph - N/A   Clear
4:15 AM 64.9 °F - 62.1 °F 90% 29.82 in 7.0 mi South 8.1 mph - N/A   Clear
4:35 AM 64.9 °F - 62.2 °F 91% 29.82 in 7.0 mi South 8.1 mph - N/A   Clear
4:55 AM 65.3 °F - 62.2 °F 90% 29.82 in 7.0 mi South 8.1 mph - N/A   Clear
5:15 AM 64.8 °F - 61.9 °F 90% 29.82 in 7.0 mi South 8.1 mph - N/A   Clear
5:35 AM 65.3 °F - 62.6 °F 91% 29.82 in 7.0 mi South 8.1 mph - N/A   Mostly Cloudy
5:55 AM 65.3 °F - 62.6 °F 91% 29.82 in 7.0 mi South 8.1 mph - N/A   Mostly Cloudy
6:15 AM 64.9 °F - 62.2 °F 91% 29.82 in 7.0 mi South 9.2 mph - N/A   Scattered Clouds
6:35 AM 64.8 °F - 62.2 °F 92% 29.83 in 7.0 mi South 9.2 mph - N/A   Mostly Cloudy
6:55 AM 66.2 °F - 63.5 °F 91% 29.83 in 7.0 mi South 9.2 mph - N/A   Overcast
7:15 AM 65.5 °F - 62.6 °F 90% 29.82 in 7.0 mi South 9.2 mph - N/A   Scattered Clouds
7:35 AM 64.8 °F - 62.1 °F 91% 29.83 in 7.0 mi South 9.2 mph - N/A   Scattered Clouds
7:55 AM 64.8 °F - 62.2 °F 92% 29.83 in 5.0 mi SSE 9.2 mph - N/A   Clear
8:15 AM 65.7 °F - 63.1 °F 92% 29.83 in 7.0 mi South 6.9 mph - N/A   Clear
8:35 AM 67.1 °F - 64.4 °F 91% 29.83 in 7.0 mi South 8.1 mph - N/A   Scattered Clouds
8:55 AM 69.3 °F - 65.3 °F 87% 29.83 in 10.0 mi South 12.7 mph - N/A   Overcast
9:15 AM 70.7 °F - 65.5 °F 83% 29.84 in 10.0 mi SSW 12.7 mph - N/A   Overcast
9:35 AM 71.4 °F - 65.7 °F 82% 29.83 in 10.0 mi SSW 16.1 mph - N/A   Overcast
9:55 AM 72.0 °F - 65.5 °F 80% 29.83 in 10.0 mi South 15.0 mph 18.4 mph N/A   Overcast
10:15 AM 72.5 °F - 65.1 °F 78% 29.83 in 10.0 mi South 16.1 mph 19.6 mph N/A   Overcast
10:35 AM 72.9 °F - 64.8 °F 76% 29.83 in 10.0 mi South 16.1 mph - N/A   Overcast
10:55 AM 73.9 °F - 64.6 °F 72% 29.83 in 10.0 mi South 19.6 mph - N/A   Overcast
11:15 AM 74.3 °F - 64.4 °F 71% 29.82 in 10.0 mi SSW 18.4 mph - N/A   Overcast
11:35 AM 74.3 °F - 63.9 °F 70% 29.82 in 10.0 mi South 16.1 mph - N/A   Overcast
11:55 AM 73.6 °F - 63.7 °F 71% 29.82 in 10.0 mi South 19.6 mph - N/A   Overcast
12:15 PM 74.3 °F - 63.5 °F 69% 29.81 in 10.0 mi South 19.6 mph - N/A   Overcast
12:35 PM 75.9 °F - 63.9 °F 66% 29.80 in 10.0 mi South 19.6 mph - N/A   Mostly Cloudy
12:55 PM 77.0 °F - 63.9 °F 64% 29.78 in 10.0 mi South 18.4 mph 25.3 mph N/A   Scattered Clouds
1:15 PM 78.4 °F - 64.2 °F 62% 29.77 in 10.0 mi South 19.6 mph 23.0 mph N/A   Clear
1:35 PM 79.5 °F - 64.4 °F 60% 29.77 in 10.0 mi SSW 18.4 mph 24.2 mph N/A   Clear
1:55 PM 80.4 °F 82.1 °F 64.4 °F 58% 29.77 in 10.0 mi South 16.1 mph 24.2 mph N/A   Scattered Clouds
2:15 PM 80.8 °F 82.4 °F 64.4 °F 57% 29.76 in 10.0 mi SSW 15.0 mph 24.2 mph N/A   Scattered Clouds
2:35 PM 80.8 °F 82.5 °F 64.6 °F 58% 29.76 in 10.0 mi SSW 18.4 mph 23.0 mph N/A   Scattered Clouds
2:55 PM 80.2 °F 82.1 °F 65.1 °F 60% 29.75 in 10.0 mi SSW 18.4 mph 24.2 mph N/A   Mostly Cloudy
3:15 PM 80.8 °F 82.6 °F 65.3 °F 59% 29.75 in 10.0 mi South 18.4 mph 23.0 mph N/A   Mostly Cloudy
3:35 PM 81.0 °F 82.9 °F 65.3 °F 59% 29.74 in 10.0 mi South 17.3 mph 24.2 mph N/A   Scattered Clouds
3:55 PM 81.0 °F 83.0 °F 65.8 °F 60% 29.73 in 10.0 mi South 17.3 mph 21.9 mph N/A   Mostly Cloudy
4:15 PM 81.1 °F 83.1 °F 65.5 °F 59% 29.73 in 10.0 mi South 20.7 mph 27.6 mph N/A   Scattered Clouds
4:35 PM 80.4 °F 82.3 °F 65.5 °F 60% 29.73 in 10.0 mi South 16.1 mph 27.6 mph N/A   Scattered Clouds
4:55 PM 80.8 °F 82.6 °F 65.3 °F 59% 29.73 in 10.0 mi South 16.1 mph 25.3 mph N/A   Scattered Clouds
5:15 PM 79.7 °F - 65.3 °F 61% 29.73 in 10.0 mi South 16.1 mph 25.3 mph N/A   Scattered Clouds
5:35 PM 78.8 °F - 64.9 °F 62% 29.73 in 10.0 mi South 15.0 mph 24.2 mph N/A   Clear
5:55 PM 77.2 °F - 64.8 °F 65% 29.73 in 10.0 mi South 15.0 mph - N/A   Clear
6:15 PM 76.1 °F - 64.6 °F 67% 29.73 in 10.0 mi South 13.8 mph - N/A   Clear
6:35 PM 74.7 °F - 64.4 °F 70% 29.72 in 10.0 mi South 11.5 mph 16.1 mph N/A   Clear
6:55 PM 74.3 °F - 64.6 °F 72% 29.73 in 10.0 mi South 11.5 mph - N/A   Clear
7:15 PM 74.5 °F - 64.4 °F 71% 29.73 in 10.0 mi South 12.7 mph - N/A   Clear
7:35 PM 74.3 °F - 64.4 °F 71% 29.73 in 10.0 mi South 10.4 mph - N/A   Clear
7:55 PM 74.3 °F - 64.4 °F 71% 29.73 in 10.0 mi South 12.7 mph - N/A   Clear
8:15 PM 74.8 °F - 64.4 °F 70% 29.73 in 10.0 mi South 16.1 mph 21.9 mph N/A   Clear
8:35 PM 75.4 °F - 64.4 °F 69% 29.73 in 10.0 mi South 15.0 mph 21.9 mph N/A   Clear
8:55 PM 75.0 °F - 64.2 °F 69% 29.72 in 10.0 mi South 16.1 mph - N/A   Clear
9:15 PM 74.8 °F - 64.0 °F 69% 29.73 in 10.0 mi South 16.1 mph 20.7 mph N/A   Clear
9:35 PM 74.7 °F - 63.9 °F 69% 29.72 in 10.0 mi South 15.0 mph - N/A   Clear
9:55 PM 74.3 °F - 63.7 °F 69% 29.71 in 10.0 mi South 17.3 mph 21.9 mph N/A   Clear
10:15 PM 74.5 °F - 63.5 °F 68% 29.71 in 10.0 mi South 18.4 mph 23.0 mph N/A   Clear
10:35 PM 74.3 °F - 63.1 °F 68% 29.70 in 10.0 mi South 19.6 mph 25.3 mph N/A   Clear
10:55 PM 74.5 °F - 63.0 °F 67% 29.70 in 10.0 mi South 19.6 mph 24.2 mph N/A   Clear
11:15 PM 74.1 °F - 63.0 °F 68% 29.70 in 10.0 mi South 17.3 mph 25.3 mph N/A   Clear
11:35 PM 73.4 °F - 62.8 °F 69% 29.70 in 10.0 mi SSW 15.0 mph - N/A   Clear
11:55 PM 72.5 °F - 62.8 °F 71% 29.70 in 10.0 mi SSW 15.0 mph - N/A   Clear